Location: Tel Aviv
(32.0670°N, 34.7670°E)
Time: 05:07:27
(UTC+03:00)

UKube-1 - Visible Passes

Search period start: 14 July 2025 00:00
Search period end: 24 July 2025 00:00
Orbit: 548 x 550 km, 98.4° (Epoch: 13 July)

Date Brightness Start Highest point End Pass type
(mag) Time Alt. Az. Time Alt. Az. Time Alt. Az.
14 Jul ? 03:23:12 10° NE 03:26:06 20° E 03:27:46 15° SE visible
14 Jul ? 04:57:32 10° NNW 05:00:35 22° WNW 05:03:27 11° WSW visible
15 Jul ? 03:18:48 10° NE 03:21:24 17° E 03:23:00 14° SE visible
15 Jul ? 04:52:41 10° NNW 04:55:57 25° WNW 04:58:41 13° WSW visible
16 Jul ? 03:14:26 10° ENE 03:16:40 15° E 03:18:14 12° ESE visible
16 Jul ? 04:47:51 10° NNW 04:51:17 29° WNW 04:53:54 15° SW visible
17 Jul ? 03:10:12 10° ENE 03:11:55 12° E 03:13:26 10° ESE visible
17 Jul ? 04:43:01 10° N 04:46:36 34° WNW 04:49:07 17° SW visible
18 Jul ? 03:06:18 10° E 03:07:09 11° E 03:08:00 10° ESE visible
18 Jul ? 04:38:12 10° N 04:41:53 39° WNW 04:44:19 19° SW visible
19 Jul ? 04:33:23 10° N 04:37:10 46° WNW 04:39:30 21° SW visible
20 Jul ? 04:28:35 10° N 04:32:27 55° WNW 04:34:40 23° SW visible
21 Jul ? 04:23:47 10° N 04:27:42 65° WNW 04:29:48 25° SSW visible
22 Jul ? 04:18:59 10° N 04:22:55 78° WNW 04:24:57 27° SSW visible
23 Jul ? 04:14:11 10° NNE 04:18:08 89° ESE 04:20:05 29° SSW visible
